CW4591 Weather Reports


Display with metric or nautical units.
time (UTC)temp
F
wind
direction
speed
MPH
gust
MPH
rain 1hr
in
rain 24hr
in
rain mn
in
humidity
%
barometer
mb
20260906040026 54 359 2.0 5.0 0.00 0.03 0.03 91 1012.2
20260906034541 54 279 0.0 4.0 0.01 0.03 0.03 91 1012.5
20260906033026 54 359 0.0 5.0 0.03 0.03 0.03 91 1012.3
20260906031529 55 259 1.0 4.0 0.03 0.03 0.03 90 1012.2
20260906030024 55 259 1.0 4.0 0.03 0.03 0.03 89 1012.3
20260906024521 56 258 1.0 5.0 0.02 0.02 0.02 87 1012.3
20260906023021 56 267 2.0 6.0 0.00 0.00 0.00 83 1012.0
20260906021516 58 359 2.0 9.0 0.00 0.00 0.00 79 1012.0
20260906020015 58 276 3.0 8.0 0.00 0.00 0.00 75 1011.7
20260906014514 58 359 3.0 8.0 0.00 0.00 0.00 75 1011.7
20260906013013 60 344 6.0 19.0 0.00 0.00 0.00 69 1011.4
20260906011511 61 268 6.0 16.0 0.00 0.00 0.00 67 1011.3
20260906010010 62 359 7.0 19.0 0.00 0.00 0.00 64 1011.1
20260906004509 65 316 4.0 25.0 0.00 0.00 0.00 58 1010.5
20260906003008 68 25 6.0 17.0 0.00 0.00 0.00 52 1009.9
20260906001508 69 280 5.0 13.0 0.00 0.00 0.00 41 1009.4
20260906000007 71 247 8.0 12.0 0.00 0.00 0.00 40 1009.1
20260905234505 70 232 5.0 16.0 0.00 0.00 0.00 41 1009.1
20260905233002 69 253 7.0 16.0 0.00 0.00 0.00 44 1009.0
20260905231505 68 220 6.0 18.0 0.00 0.00 0.00 45 1009.3
20260905230001 67 224 6.0 15.0 0.00 0.00 0.00 46 1009.1
20260905224559 67 256 9.0 17.0 0.00 0.00 0.00 46 1009.2
20260905223059 67 220 8.0 16.0 0.00 0.00 0.00 44 1009.2
20260905221601 68 228 5.0 14.0 0.00 0.00 0.00 44 1009.1
20260905220059 69 285 7.0 17.0 0.00 0.00 0.00 43 1009.0
20260905214557 69 217 9.0 21.0 0.00 0.00 0.00 44 1008.9
20260905213055 69 264 7.0 16.0 0.00 0.00 0.00 45 1008.7
20260905211553 68 245 6.0 15.0 0.00 0.00 0.00 47 1008.7
20260905210106 67 278 2.0 17.0 0.00 0.00 0.00 52 1008.8
20260905204548 66 289 0.0 4.0 0.00 0.00 0.00 51 1008.8
20260905203049 66 333 2.0 7.0 0.00 0.00 0.00 50 1008.8
20260905201545 65 246 3.0 8.0 0.00 0.00 0.00 56 1008.8
20260905200107 62 255 0.0 6.0 0.00 0.00 0.00 63 1009.1
20260905194540 58 201 1.0 3.0 0.00 0.00 0.00 70 1009.1
20260905193041 55 243 0.0 6.0 0.00 0.00 0.00 75 1009.1
20260905191539 54 59 2.0 7.0 0.00 0.00 0.00 75 1009.1
20260905190039 53 181 0.0 6.0 0.00 0.00 0.00 76 1009.0
20260905184548 53 29 0.0 4.0 0.00 0.00 0.00 77 1009.2
20260905183041 53 121 1.0 5.0 0.00 0.00 0.00 77 1008.9
20260905181544 52 120 0.0 2.0 0.00 0.00 0.00 77 1009.0
20260905180041 52 120 1.0 6.0 0.00 0.00 0.00 76 1009.0
20260905174536 52 138 3.0 7.0 0.00 0.00 0.00 75 1008.9
20260905173043 52 110 2.0 10.0 0.00 0.00 0.00 75 1008.8
20260905171536 52 165 5.0 11.0 0.00 0.00 0.00 75 1008.7
20260905170034 52 142 2.0 9.0 0.00 0.00 0.00 75 1008.7
20260905164530 52 156 4.0 9.0 0.00 0.00 0.00 75 1008.7
20260905163027 52 135 3.0 7.0 0.00 0.00 0.00 75 1008.8
20260905161527 52 166 3.0 7.0 0.00 0.00 0.00 74 1008.9
20260905160025 52 89 1.0 3.0 0.00 0.00 0.00 74 1009.0
20260905154523 52 116 2.0 5.0 0.00 0.00 0.00 72 1009.1
20260905153028 52 120 0.0 4.0 0.00 0.00 0.00 73 1009.3
20260905151520 53 83 0.0 7.0 0.00 0.00 0.00 70 1009.1
20260905150023 54 40 1.0 3.0 0.00 0.00 0.00 67 1009.1
20260905144516 55 106 0.0 3.0 0.00 0.00 0.00 65 1009.1
20260905143022 57 103 0.0 2.0 0.00 0.00 0.00 61 1009.2
20260905141514 58 184 1.0 10.0 0.00 0.00 0.00 58 1009.0
20260905140011 55 204 5.0 12.0 0.00 0.00 0.00 63 1009.3
20260905134523 56 161 0.0 5.0 0.00 0.00 0.00 62 1009.6
20260905133011 58 115 2.0 6.0 0.00 0.00 0.00 60 1009.5
20260905131510 59 183 1.0 9.0 0.00 0.00 0.00 56 1009.4
20260905130008 59 162 1.0 8.0 0.00 0.00 0.00 56 1009.6
20260905124510 61 143 2.0 12.0 0.00 0.00 0.00 54 1009.5
20260905123025 61 147 5.0 16.0 0.00 0.00 0.00 53 1009.7
20260905121505 60 191 6.0 16.0 0.00 0.00 0.00 54 1009.6
20260905120004 60 238 3.0 10.0 0.00 0.00 0.00 55 1009.6
20260905114502 59 183 0.0 11.0 0.00 0.00 0.00 57 1009.8
20260905113001 57 201 4.0 10.0 0.00 0.00 0.00 62 1009.9
20260905111605 56 188 2.0 6.0 0.00 0.00 0.00 65 1010.1
20260905110059 55 172 4.0 9.0 0.00 0.00 0.00 68 1010.1
20260905104555 56 267 0.0 4.0 0.00 0.00 0.00 68 1010.1
20260905103058 58 229 0.0 4.0 0.00 0.00 0.00 63 1010.2
20260905101548 59 229 0.0 4.0 0.00 0.00 0.00 60 1010.2
20260905100054 60 140 3.0 6.0 0.00 0.00 0.00 57 1009.9
20260905094542 61 193 0.0 10.0 0.00 0.00 0.00 53 1010.3
20260905093041 61 174 3.0 13.0 0.00 0.00 0.00 52 1010.2
20260905091546 61 162 6.0 11.0 0.00 0.00 0.00 53 1010.3
20260905090036 61 149 5.0 13.0 0.00 0.00 0.00 53 1010.5
20260905084534 61 183 3.0 12.0 0.00 0.00 0.00 54 1010.6
20260905083033 61 199 3.0 9.0 0.00 0.00 0.00 54 1010.8
20260905081529 62 219 4.0 11.0 0.00 0.00 0.00 52 1010.8
20260905080041 62 168 8.0 17.0 0.00 0.00 0.00 52 1011.0
20260905074528 61 129 7.0 21.0 0.00 0.00 0.00 53 1011.1
20260905073027 61 161 6.0 13.0 0.00 0.00 0.00 54 1011.3
20260905071525 62 146 4.0 12.0 0.00 0.00 0.00 52 1011.4
20260905070030 62 184 5.0 11.0 0.00 0.00 0.00 53 1011.4
20260905064520 62 241 5.0 12.0 0.00 0.00 0.00 52 1011.6
20260905063019 62 147 4.0 11.0 0.00 0.00 0.00 52 1011.6
20260905061522 62 132 6.0 11.0 0.00 0.00 0.00 53 1011.8
20260905060036 63 140 3.0 10.0 0.00 0.00 0.00 52 1011.9
20260905054516 64 213 2.0 14.0 0.00 0.00 0.00 50 1012.0
20260905053016 64 191 6.0 14.0 0.00 0.00 0.00 50 1012.0
20260905051520 64 359 5.0 13.0 0.00 0.00 0.00 50 1012.0
20260905050018 64 202 4.0 9.0 0.00 0.00 0.00 50 1012.1
20260905044518 64 140 2.0 8.0 0.00 0.00 0.00 50 1012.1
20260905043012 63 249 4.0 8.0 0.00 0.00 0.00 54 1012.1
20260905041512 63 359 0.0 1.0 0.00 0.00 0.00 67 1012.2